Location: Anne Acres
(38.7004°N, 75.0827°W)
Time: 00:47:48
(UTC+00:00)

Altair - Pass Details

Date: 07 November 2024
Orbit: 1501 x 1683 km, 47.2° (Epoch: 03 December)

Event Time Altitude Azimuth Distance (km) Brightness Sun altitude
Rises 23:25:32 0° 300° (WNW) 4,650 10.9 -18.3°
Reaches altitude 10° 23:28:34 10° 297° (WNW) 3,679 10.3 -18.9°
Maximum altitude 23:37:39 62° 220° (SW) 1,707 7.9 -20.6°
Drops below altitude 10° 23:47:02 10° 142° (SE) 3,792 9.2 -22.5°
Enters shadow 23:47:52 - 141° (SE) 4,051 9.4 -22.6°
